User: anonymous   Login
Location: Eymir
(36.7333°N, 29.7833°E)
Time: 11:51:51
(UTC+00:00)
Language:

Landsat 7 - Orbit

View from above orbital plane
View from above orbital plane
View from above satellite
View from above satellite

Ground track
Ground track

The orbit is defined by the following mean orbital elements,

1 25682U          26071.99620207 +.00000000 +00000-0 +12785-3 0 00003
2 25682  97.8608  80.0383 0001665  80.5428 306.8172 14.63825950    00
Epoch (UTC): 12 March 2026 23:54:31
Eccentricity: 0.0001665
inclination: 97.8608°
perigee height: 680 km
apogee height: 682 km
right ascension of ascending node: 80.0383°
argument of perigee: 80.5428°
revolutions per day: 14.63825950
mean anomaly at epoch: 306.8172°

The dashed part of the orbit path shows where the satellite is in the earth's shadow,  

DLR